TimeHST,TemperatureF,Dew PointF,Humidity,Sea Level PressureIn,VisibilityMPH,Wind Direction,Wind SpeedMPH,Gust SpeedMPH,PrecipitationIn,Events,Conditions,WindDirDegrees,DateUTC
12:53 AM,68.0,63.0,84,30.07,10.0,ENE,3.5,-,N/A,,Mostly Cloudy,70,2013-03-21 10:53:00
1:53 AM,68.0,63.0,84,30.04,10.0,ENE,3.5,-,N/A,,Scattered Clouds,60,2013-03-21 11:53:00
2:53 AM,66.9,61.0,81,30.04,10.0,Calm,Calm,-,N/A,,Scattered Clouds,0,2013-03-21 12:53:00
3:53 AM,68.0,62.1,81,30.03,10.0,Calm,Calm,-,N/A,,Overcast,0,2013-03-21 13:53:00
4:53 AM,68.0,62.1,81,30.04,10.0,Calm,Calm,-,N/A,,Overcast,0,2013-03-21 14:53:00
5:53 AM,68.0,62.1,81,30.05,10.0,Calm,Calm,-,0.00,,Overcast,0,2013-03-21 15:53:00
6:53 AM,68.0,63.0,84,30.07,10.0,Calm,Calm,-,N/A,,Scattered Clouds,0,2013-03-21 16:53:00
7:53 AM,73.0,64.9,76,30.09,10.0,Calm,Calm,-,N/A,,Clear,0,2013-03-21 17:53:00
8:53 AM,75.9,66.0,71,30.10,10.0,Variable,4.6,-,N/A,,Partly Cloudy,0,2013-03-21 18:53:00
9:53 AM,78.1,66.9,68,30.10,10.0,East,5.8,-,N/A,,Clear,90,2013-03-21 19:53:00
10:53 AM,78.1,68.0,71,30.09,10.0,ESE,6.9,-,N/A,,Clear,120,2013-03-21 20:53:00
11:53 AM,79.0,69.1,72,30.07,10.0,ESE,4.6,-,N/A,,Scattered Clouds,110,2013-03-21 21:53:00
12:00 PM,80.6,69.8,70,30.05,10.0,Variable,5.8,-,N/A,,Mostly Cloudy,0,2013-03-21 22:00:00
12:12 PM,78.8,69.8,74,30.05,10.0,SE,6.9,-,N/A,,Scattered Clouds,130,2013-03-21 22:12:00
12:53 PM,78.1,69.1,74,30.06,10.0,Variable,6.9,-,N/A,,Clear,0,2013-03-21 22:53:00
1:53 PM,78.1,69.1,74,30.03,10.0,Variable,5.8,-,N/A,,Clear,0,2013-03-21 23:53:00
2:53 PM,79.0,70.0,74,30.02,10.0,Variable,3.5,-,N/A,,Mostly Cloudy,0,2013-03-22 00:53:00
3:17 PM,78.8,69.8,74,30.00,10.0,SE,5.8,-,N/A,,Mostly Cloudy,140,2013-03-22 01:17:00
3:53 PM,79.0,69.1,72,30.01,10.0,SE,5.8,-,N/A,,Mostly Cloudy,130,2013-03-22 01:53:00
4:53 PM,77.0,69.1,76,30.02,10.0,SSE,8.1,-,N/A,,Scattered Clouds,160,2013-03-22 02:53:00
5:53 PM,77.0,69.1,76,30.03,8.0,SSE,6.9,-,N/A,,Clear,160,2013-03-22 03:53:00
6:53 PM,75.9,69.1,79,30.04,9.0,SSE,5.8,-,N/A,,Overcast,150,2013-03-22 04:53:00
7:53 PM,75.9,66.9,74,30.06,10.0,SSE,6.9,-,N/A,,Overcast,150,2013-03-22 05:53:00
8:53 PM,75.9,68.0,76,30.08,10.0,South,4.6,-,N/A,,Overcast,170,2013-03-22 06:53:00
9:53 PM,75.9,69.1,79,30.09,10.0,SSE,5.8,-,N/A,,Overcast,160,2013-03-22 07:53:00
10:53 PM,75.9,69.1,79,30.10,10.0,South,6.9,-,N/A,,Overcast,190,2013-03-22 08:53:00
11:53 PM,75.0,69.1,82,30.08,10.0,South,9.2,-,N/A,,Mostly Cloudy,190,2013-03-22 09:53:00